WXM80 ListenWXM80 Stop

You find our weather info also at:

UK Metoffice

WeatherCloud

Weather Underground

Northeastern Weather Network

AWEKAS

Citizen Weather Observer Program (CWOP)

HAMweather, WeatherForYou, PWS Weather


Weather Underground History page Text

Daily Summary for December 21, 2017 Units:  English    Metric   Both
« Previous Day
Next Day »
Daily Weekly Monthly Yearly Custom
  High: Low: Average:
Temperature: TemperatureF °F 32.4 °F 35.2 °F
Dew Point: DewpointF °F 21.6 °F 23 °F
Humidity: Humidity % 51 % 61 %
Wind Speed: WindSpeedMPH mph 0.0 mph 2.3 mph
Wind Gust: WindSpeedGustMPH mph - -
Wind:- - SSW
Pressure: PressureIn in 30.02 in -
Precipitation: 0.00 in    
Historical Graphs
 
 
Tabular Data for December 21, 2017
Time Temperature Dew Point Pressure Wind Wind Speed Wind Gust Humidity Rainfall Rate (Hourly)
TemperatureF °F DewpointF °F PressureIn in Calm     Humidity % HourlyPrecipIn in
00:00 35.3 °F 22.0 °F 30.02 in NW 4.8 mph 9.2 mph 58 % 0.00 in
00:03 35.3 °F 22.0 °F 30.02 in NNW 2.9 mph 4.6 mph 58 % 0.00 in
00:08 35.2 °F 22.3 °F 30.02 in NW 3.3 mph 9.2 mph 59 % 0.00 in
00:13 35.1 °F 22.2 °F 30.02 in WNW 3.7 mph 11.5 mph 59 % 0.00 in
00:15 35.1 °F 22.2 °F 30.02 in WNW 3.3 mph 8.1 mph 59 % 0.00 in
00:18 35.1 °F 22.6 °F 30.02 in NNW 4.0 mph 6.9 mph 60 % 0.00 in
00:21 35.0 °F 22.5 °F 30.03 in NNW 3.6 mph 8.1 mph 60 % 0.00 in
00:26 35.0 °F 22.5 °F 30.03 in WNW 3.9 mph 9.0 mph 60 % 0.00 in
00:31 34.9 °F 22.0 °F 30.02 in NW 3.5 mph 9.2 mph 59 % 0.00 in
00:34 34.9 °F 22.4 °F 30.03 in North 4.6 mph 8.1 mph 60 % 0.00 in
00:39 34.8 °F 22.3 °F 30.02 in NW 3.7 mph 6.9 mph 60 % 0.00 in
00:44 34.7 °F 22.2 °F 30.03 in NW 3.3 mph 10.4 mph 60 % 0.00 in
00:46 34.7 °F 22.6 °F 30.03 in NNW 4.3 mph 6.9 mph 61 % 0.00 in
00:51 34.7 °F 22.2 °F 30.03 in NNW 4.8 mph 8.1 mph 60 % 0.00 in
00:56 34.6 °F 22.1 °F 30.03 in WNW 5.7 mph 10.4 mph 60 % 0.00 in
00:59 34.6 °F 22.1 °F 30.03 in WNW 4.6 mph 11.5 mph 60 % 0.00 in
01:03 34.6 °F 22.1 °F 30.03 in NNW 2.2 mph 5.8 mph 60 % 0.00 in
01:06 34.6 °F 22.5 °F 30.03 in NNW 5.6 mph 11.5 mph 61 % 0.00 in
01:10 34.6 °F 22.5 °F 30.03 in WNW 0.2 mph 3.0 mph 61 % 0.00 in
01:13 34.6 °F 22.9 °F 30.04 in NW 3.9 mph 11.5 mph 62 % 0.00 in
01:18 34.5 °F 22.8 °F 30.03 in NW 4.3 mph 8.1 mph 62 % 0.00 in
01:21 34.5 °F 22.8 °F 30.03 in WNW 2.6 mph 8.1 mph 62 % 0.00 in
01:26 34.5 °F 22.8 °F 30.04 in WNW 3.0 mph 9.2 mph 62 % 0.00 in
01:27 34.5 °F 22.8 °F 30.04 in NNW 3.0 mph 4.0 mph 62 % 0.00 in
01:30 34.5 °F 22.4 °F 30.04 in NW 3.7 mph 5.8 mph 61 % 0.00 in
01:35 34.5 °F 22.8 °F 30.04 in NW 4.7 mph 6.0 mph 62 % 0.00 in
01:39 34.4 °F 22.7 °F 30.04 in NNW 1.6 mph 5.0 mph 62 % 0.00 in
01:41 34.4 °F 22.7 °F 30.04 in WNW 3.4 mph 6.0 mph 62 % 0.00 in
01:46 34.4 °F 22.7 °F 30.04 in NW 3.6 mph 6.9 mph 62 % 0.00 in
01:51 34.4 °F 22.7 °F 30.04 in NW 0.7 mph 9.2 mph 62 % 0.00 in
01:52 34.4 °F 22.7 °F 30.04 in NW 4.0 mph 4.6 mph 62 % 0.00 in
01:55 34.3 °F 22.2 °F 30.05 in WNW 6.1 mph 7.0 mph 61 % 0.00 in
01:57 34.3 °F 22.2 °F 30.04 in WSW 4.8 mph 4.8 mph 61 % 0.00 in
02:03 34.3 °F 22.6 °F 30.05 in NW 1.0 mph 5.8 mph 62 % 0.00 in
02:04 34.3 °F 22.6 °F 30.05 in NW 2.5 mph 5.8 mph 62 % 0.00 in
02:09 34.3 °F 22.2 °F 30.05 in WNW 4.4 mph 7.0 mph 61 % 0.00 in
02:13 34.3 °F 22.6 °F 30.05 in NW 1.1 mph 6.9 mph 62 % 0.00 in
02:18 34.3 °F 22.6 °F 30.05 in NW 3.8 mph 6.9 mph 62 % 0.00 in
02:23 34.3 °F 22.2 °F 30.05 in WNW 1.1 mph 3.5 mph 61 % 0.00 in
02:28 34.2 °F 22.5 °F 30.05 in NNW 1.8 mph 5.0 mph 62 % 0.00 in
02:33 34.2 °F 22.5 °F 30.05 in NNW 0.5 mph 3.5 mph 62 % 0.00 in
02:36 34.2 °F 22.5 °F 30.05 in NNW 2.4 mph 4.6 mph 62 % 0.00 in
02:39 34.2 °F 22.5 °F 30.05 in NNW 0.7 mph 3.5 mph 62 % 0.00 in
02:45 34.1 °F 22.8 °F 30.05 in NW 2.6 mph 4.6 mph 63 % 0.00 in
02:47 34.1 °F 22.8 °F 30.05 in NNW 1.1 mph 5.8 mph 63 % 0.00 in
02:51 34.1 °F 22.8 °F 30.05 in WNW 4.0 mph 5.8 mph 63 % 0.00 in
02:52 34.1 °F 22.8 °F 30.05 in NW 3.4 mph 6.9 mph 63 % 0.00 in
02:57 34.0 °F 22.3 °F 30.05 in NNW 2.1 mph 6.9 mph 62 % 0.00 in
02:58 34.0 °F 22.7 °F 30.05 in NNW 2.3 mph 4.6 mph 63 % 0.00 in
03:02 34.1 °F 22.4 °F 30.05 in NW 1.5 mph 3.5 mph 62 % 0.00 in
03:08 34.0 °F 22.7 °F 30.06 in NNE 1.6 mph 3.5 mph 63 % 0.00 in
03:12 34.0 °F 22.3 °F 30.06 in WNW 1.3 mph 8.1 mph 62 % 0.00 in
03:17 34.0 °F 22.7 °F 30.06 in NW 3.8 mph 6.9 mph 63 % 0.00 in
03:18 34.0 °F 22.7 °F 30.06 in NNW 5.0 mph 8.1 mph 63 % 0.00 in
03:23 34.0 °F 22.7 °F 30.06 in NW 5.4 mph 10.4 mph 63 % 0.00 in
03:26 34.0 °F 22.3 °F 30.06 in NNW 2.2 mph 6.9 mph 62 % 0.00 in
03:31 34.1 °F 22.4 °F 30.07 in WNW 1.9 mph 7.0 mph 62 % 0.00 in
03:36 34.1 °F 22.8 °F 30.07 in WNW 3.7 mph 7.0 mph 63 % 0.00 in
03:40 34.1 °F 22.8 °F 30.07 in NW 4.1 mph 6.0 mph 63 % 0.00 in
03:45 34.1 °F 22.4 °F 30.06 in NW 1.2 mph 3.5 mph 62 % 0.00 in
03:50 34.0 °F 22.7 °F 30.06 in NNE 0.8 mph 3.5 mph 63 % 0.00 in
03:55 33.9 °F 22.6 °F 30.07 in NNE 3.5 mph 5.0 mph 63 % 0.00 in
04:00 33.9 °F 22.6 °F 30.06 in NNE 2.5 mph 5.8 mph 63 % 0.00 in
04:04 33.8 °F 22.5 °F 30.06 in NNW 1.7 mph 3.5 mph 63 % 0.00 in
04:09 33.7 °F 22.4 °F 30.06 in NNE 3.2 mph 5.8 mph 63 % 0.00 in
04:12 33.7 °F 22.4 °F 30.07 in NNW 4.7 mph 9.2 mph 63 % 0.00 in
04:18 33.6 °F 22.3 °F 30.07 in North 3.6 mph 6.0 mph 63 % 0.00 in
04:19 33.6 °F 22.7 °F 30.07 in North 2.7 mph 5.8 mph 64 % 0.00 in
04:21 33.6 °F 22.7 °F 30.07 in NNW 4.4 mph 6.0 mph 64 % 0.00 in
04:24 33.6 °F 22.7 °F 30.07 in NNW 1.1 mph 3.5 mph 64 % 0.00 in
04:29 33.5 °F 22.6 °F 30.07 in North 5.6 mph 6.0 mph 64 % 0.00 in
04:33 33.4 °F 22.5 °F 30.07 in NNE 3.4 mph 6.0 mph 64 % 0.00 in
04:38 33.4 °F 22.5 °F 30.07 in North 1.4 mph 5.8 mph 64 % 0.00 in
04:42 33.4 °F 22.5 °F 30.08 in NNW 0.9 mph 3.5 mph 64 % 0.00 in
04:47 33.4 °F 22.9 °F 30.07 in NNW 1.9 mph 3.5 mph 65 % 0.00 in
04:48 33.4 °F 22.9 °F 30.07 in North 1.4 mph 3.5 mph 65 % 0.00 in
04:53 33.4 °F 22.9 °F 30.08 in NNW 4.9 mph 6.9 mph 65 % 0.00 in
04:54 33.4 °F 22.9 °F 30.08 in NNW 2.0 mph 6.9 mph 65 % 0.00 in
04:55 33.4 °F 23.3 °F 30.08 in NNE 1.0 mph 4.0 mph 66 % 0.00 in
04:59 33.3 °F 23.2 °F 30.09 in North 1.9 mph 4.6 mph 66 % 0.00 in
05:04 33.3 °F 23.5 °F 30.09 in NNE 2.7 mph 4.6 mph 67 % 0.00 in
05:06 33.3 °F 23.5 °F 30.09 in North 6.2 mph 8.1 mph 67 % 0.00 in
05:11 33.3 °F 23.5 °F 30.09 in NNE 3.2 mph 4.6 mph 67 % 0.00 in
05:12 33.3 °F 23.5 °F 30.09 in NNW 3.0 mph 4.6 mph 67 % 0.00 in
05:17 33.4 °F 23.6 °F 30.10 in North 3.9 mph 5.8 mph 67 % 0.00 in
05:21 33.4 °F 23.6 °F 30.10 in NNE 2.9 mph 5.8 mph 67 % 0.00 in
05:27 33.4 °F 23.3 °F 30.10 in North 4.1 mph 5.8 mph 66 % 0.00 in
05:32 33.4 °F 23.3 °F 30.10 in NNE 2.5 mph 5.8 mph 66 % 0.00 in
05:33 33.4 °F 23.3 °F 30.10 in NW 7.0 mph 10.0 mph 66 % 0.00 in
05:36 33.4 °F 23.3 °F 30.10 in NNE 5.4 mph 10.4 mph 66 % 0.00 in
05:41 33.5 °F 23.0 °F 30.10 in North 6.9 mph 9.2 mph 65 % 0.00 in
05:42 33.5 °F 22.6 °F 30.10 in North 5.5 mph 8.1 mph 64 % 0.00 in
05:47 33.5 °F 23.0 °F 30.10 in North 5.6 mph 10.4 mph 65 % 0.00 in
05:48 33.5 °F 23.0 °F 30.10 in North 3.1 mph 6.9 mph 65 % 0.00 in
05:53 33.5 °F 23.0 °F 30.11 in NNE 5.3 mph 8.0 mph 65 % 0.00 in
05:55 33.5 °F 23.0 °F 30.11 in NNE 5.3 mph 8.1 mph 65 % 0.00 in
06:00 33.5 °F 23.0 °F 30.11 in North 6.1 mph 10.4 mph 65 % 0.00 in
06:02 33.5 °F 23.0 °F 30.11 in NNE 3.6 mph 8.1 mph 65 % 0.00 in
06:07 33.5 °F 22.6 °F 30.11 in North 8.7 mph 10.4 mph 64 % 0.00 in
06:09 33.5 °F 22.6 °F 30.11 in NNW 6.1 mph 10.4 mph 64 % 0.00 in
06:14 33.5 °F 23.4 °F 30.11 in North 6.0 mph 8.1 mph 66 % 0.00 in
06:19 33.5 °F 23.0 °F 30.12 in North 4.4 mph 8.0 mph 65 % 0.00 in
06:20 33.5 °F 23.0 °F 30.12 in NNE 5.3 mph 9.2 mph 65 % 0.00 in
06:25 33.5 °F 23.0 °F 30.13 in North 4.7 mph 6.9 mph 65 % 0.00 in
06:26 33.5 °F 23.0 °F 30.13 in NNE 4.6 mph 8.1 mph 65 % 0.00 in
06:31 33.4 °F 22.9 °F 30.13 in NNE 1.7 mph 4.6 mph 65 % 0.00 in
06:32 33.4 °F 22.9 °F 30.13 in NNE 4.2 mph 5.8 mph 65 % 0.00 in
06:36 33.4 °F 23.3 °F 30.12 in NNE 4.2 mph 6.0 mph 66 % 0.00 in
06:38 33.4 °F 23.3 °F 30.13 in NNE 4.9 mph 6.9 mph 66 % 0.00 in
06:43 33.3 °F 23.2 °F 30.12 in North 3.1 mph 6.9 mph 66 % 0.00 in
06:45 33.3 °F 22.8 °F 30.12 in NNE 5.8 mph 6.9 mph 65 % 0.00 in
06:46 33.3 °F 22.8 °F 30.13 in NNE 6.0 mph 9.0 mph 65 % 0.00 in
06:50 33.3 °F 22.4 °F 30.13 in North 6.7 mph 10.4 mph 64 % 0.00 in
06:52 33.3 °F 22.4 °F 30.13 in North 4.9 mph 8.0 mph 64 % 0.00 in
06:57 33.2 °F 22.7 °F 30.12 in North 6.6 mph 9.2 mph 65 % 0.00 in
07:02 33.2 °F 22.3 °F 30.12 in NNE 4.4 mph 5.8 mph 64 % 0.00 in
07:06 33.1 °F 22.2 °F 30.12 in North 5.1 mph 9.0 mph 64 % 0.00 in
07:11 33.0 °F 22.1 °F 30.13 in North 6.5 mph 10.4 mph 64 % 0.00 in
07:12 33.0 °F 22.1 °F 30.13 in North 4.4 mph 10.4 mph 64 % 0.00 in
07:17 32.8 °F 21.6 °F 30.13 in NNW 2.9 mph 6.9 mph 63 % 0.00 in
07:18 32.8 °F 21.6 °F 30.13 in NNW 4.8 mph 6.9 mph 63 % 0.00 in
07:20 32.8 °F 21.6 °F 30.13 in North 2.8 mph 4.0 mph 63 % 0.00 in
07:25 32.7 °F 22.2 °F 30.13 in NNE 3.4 mph 5.8 mph 65 % 0.00 in
07:26 32.7 °F 22.2 °F 30.14 in NNE 3.9 mph 5.8 mph 65 % 0.00 in
07:31 32.6 °F 22.1 °F 30.14 in NNE 5.0 mph 11.5 mph 65 % 0.00 in
07:34 32.6 °F 22.1 °F 30.14 in NNE 5.5 mph 6.9 mph 65 % 0.00 in
07:39 32.5 °F 22.0 °F 30.15 in North 3.1 mph 8.1 mph 65 % 0.00 in
07:40 32.5 °F 22.0 °F 30.15 in North 3.1 mph 8.1 mph 65 % 0.00 in
07:41 32.5 °F 22.0 °F 30.16 in NNE 3.0 mph 4.6 mph 65 % 0.00 in
07:46 32.4 °F 21.9 °F 30.17 in NNE 4.7 mph 8.1 mph 65 % 0.00 in
07:49 32.4 °F 21.9 °F 30.17 in NNE 5.7 mph 10.4 mph 65 % 0.00 in
07:54 32.4 °F 22.3 °F 30.17 in North 4.9 mph 10.4 mph 66 % 0.00 in
07:55 32.5 °F 22.4 °F 30.17 in NNE 4.9 mph 6.9 mph 66 % 0.00 in
08:03 32.6 °F 22.1 °F 30.17 in North 5.0 mph 10.4 mph 65 % 0.00 in
08:08 32.7 °F 22.2 °F 30.18 in North 6.4 mph 10.4 mph 65 % 0.00 in
08:13 32.8 °F 22.3 °F 30.18 in NNE 8.4 mph 11.5 mph 65 % 0.00 in
08:18 32.8 °F 22.0 °F 30.18 in NE 7.1 mph 11.5 mph 64 % 0.00 in
08:23 32.9 °F 22.0 °F 30.18 in NE 7.0 mph 12.7 mph 64 % 0.00 in
08:24 32.9 °F 22.0 °F 30.18 in NE 7.1 mph 11.5 mph 64 % 0.00 in
08:26 32.9 °F 21.7 °F 30.18 in NNE 10.5 mph 11.5 mph 63 % 0.00 in
08:31 33.0 °F 21.8 °F 30.18 in North 4.8 mph 7.0 mph 63 % 0.00 in
08:33 33.0 °F 21.8 °F 30.18 in North 5.9 mph 9.2 mph 63 % 0.00 in
08:38 33.0 °F 21.8 °F 30.17 in NNE 7.3 mph 10.4 mph 63 % 0.00 in
08:43 33.0 °F 21.8 °F 30.17 in NNE 3.4 mph 8.1 mph 63 % 0.00 in
08:44 33.0 °F 21.8 °F 30.17 in NNE 4.7 mph 7.0 mph 63 % 0.00 in
08:49 33.1 °F 22.2 °F 30.16 in North 3.8 mph 7.0 mph 64 % 0.00 in
08:50 33.1 °F 22.2 °F 30.16 in NE 4.6 mph 6.9 mph 64 % 0.00 in
08:54 33.2 °F 22.3 °F 30.17 in North 4.8 mph 6.9 mph 64 % 0.00 in
08:59 33.2 °F 22.3 °F 30.18 in ENE 2.6 mph 3.5 mph 64 % 0.00 in
09:04 33.3 °F 22.4 °F 30.18 in NE 2.3 mph 4.0 mph 64 % 0.00 in
09:09 33.4 °F 22.5 °F 30.18 in NNE 5.0 mph 8.1 mph 64 % 0.00 in
09:10 33.4 °F 22.5 °F 30.18 in NE 6.4 mph 9.2 mph 64 % 0.00 in
09:15 33.5 °F 22.2 °F 30.18 in North 3.1 mph 5.8 mph 63 % 0.00 in
09:16 33.5 °F 22.2 °F 30.18 in North 3.6 mph 4.6 mph 63 % 0.00 in
09:21 33.6 °F 22.4 °F 30.19 in NNE 6.0 mph 9.0 mph 63 % 0.00 in
09:22 33.7 °F 22.4 °F 30.19 in North 2.8 mph 5.8 mph 63 % 0.00 in
09:27 33.8 °F 22.9 °F 30.20 in North 4.8 mph 8.1 mph 64 % 0.00 in
09:28 33.8 °F 22.9 °F 30.20 in North 4.1 mph 8.1 mph 64 % 0.00 in
09:33 34.1 °F 22.8 °F 30.20 in North 3.4 mph 6.9 mph 63 % 0.00 in
09:36 34.1 °F 22.8 °F 30.21 in NNW 4.1 mph 9.2 mph 63 % 0.00 in
09:41 34.3 °F 23.0 °F 30.20 in North 4.1 mph 5.8 mph 63 % 0.00 in
09:43 34.4 °F 23.1 °F 30.20 in NNE 1.8 mph 4.0 mph 63 % 0.00 in
09:44 34.4 °F 23.1 °F 30.20 in NE 3.9 mph 6.0 mph 63 % 0.00 in
09:49 34.6 °F 22.9 °F 30.21 in NNW 4.1 mph 8.1 mph 62 % 0.00 in
09:54 34.8 °F 23.5 °F 30.21 in North 3.0 mph 4.6 mph 63 % 0.00 in
09:55 34.8 °F 23.5 °F 30.21 in North 2.0 mph 4.6 mph 63 % 0.00 in
10:00 35.0 °F 23.3 °F 30.21 in NNE 4.0 mph 7.0 mph 62 % 0.00 in
10:01 35.0 °F 22.9 °F 30.21 in North 3.5 mph 5.8 mph 61 % 0.00 in
10:02 35.0 °F 22.9 °F 30.21 in North 3.5 mph 5.8 mph 61 % 0.00 in
10:07 35.2 °F 23.5 °F 30.21 in NNW 3.3 mph 6.9 mph 62 % 0.00 in
10:08 35.3 °F 23.2 °F 30.21 in NNW 2.7 mph 4.6 mph 61 % 0.00 in
10:12 35.5 °F 23.4 °F 30.21 in NNE 2.5 mph 5.0 mph 61 % 0.00 in
10:17 35.8 °F 23.7 °F 30.22 in North 2.1 mph 4.6 mph 61 % 0.00 in
10:18 35.9 °F 23.7 °F 30.22 in North 2.7 mph 4.6 mph 61 % 0.00 in
10:23 36.3 °F 23.7 °F 30.21 in NNW 5.4 mph 6.9 mph 60 % 0.00 in
10:28 36.4 °F 23.8 °F 30.21 in North 1.6 mph 3.5 mph 60 % 0.00 in
10:34 36.6 °F 23.6 °F 30.20 in NNW 1.2 mph 5.8 mph 59 % 0.00 in
10:35 36.6 °F 23.6 °F 30.20 in NNW 1.0 mph 3.0 mph 59 % 0.00 in
10:39 36.5 °F 23.1 °F 30.19 in NNE 1.9 mph 4.0 mph 58 % 0.00 in
10:41 36.5 °F 23.5 °F 30.20 in North 3.0 mph 7.0 mph 59 % 0.00 in
10:46 36.5 °F 23.9 °F 30.20 in NNE 2.3 mph 5.0 mph 60 % 0.00 in
10:47 36.5 °F 23.5 °F 30.20 in North 2.3 mph 5.8 mph 59 % 0.00 in
10:52 36.6 °F 23.6 °F 30.19 in North 1.8 mph 2.3 mph 59 % 0.00 in
10:53 36.6 °F 23.6 °F 30.19 in NNW 3.4 mph 5.8 mph 59 % 0.00 in
10:54 36.6 °F 23.6 °F 30.20 in WNW 3.1 mph 5.0 mph 59 % 0.00 in
11:00 36.8 °F 23.8 °F 30.20 in NW 2.4 mph 7.0 mph 59 % 0.00 in
11:03 36.9 °F 23.5 °F 30.21 in NW 3.5 mph 5.8 mph 58 % 0.00 in
11:08 36.8 °F 23.8 °F 30.20 in NW 3.0 mph 4.0 mph 59 % 0.00 in
11:11 36.7 °F 23.3 °F 30.21 in North 3.7 mph 5.0 mph 58 % 0.00 in
11:12 36.7 °F 23.7 °F 30.20 in NE 4.8 mph 7.0 mph 59 % 0.00 in
11:17 36.4 °F 23.0 °F 30.21 in NNE 3.7 mph 6.9 mph 58 % 0.00 in
11:22 36.3 °F 23.3 °F 30.20 in WNW 2.3 mph 4.6 mph 59 % 0.00 in
11:25 36.3 °F 23.7 °F 30.21 in WNW 2.4 mph 4.6 mph 60 % 0.00 in
11:28 36.3 °F 23.7 °F 30.21 in WNW 1.8 mph 4.0 mph 60 % 0.00 in
11:32 36.4 °F 23.4 °F 30.20 in WNW 2.5 mph 4.6 mph 59 % 0.00 in
11:33 36.4 °F 23.4 °F 30.20 in WNW 1.2 mph 3.5 mph 59 % 0.00 in
11:38 36.2 °F 23.2 °F 30.20 in Calm     59 % 0.00 in
11:41 36.2 °F 23.2 °F 30.20 in NNW 2.5 mph 5.0 mph 59 % 0.00 in
11:46 36.2 °F 23.2 °F 30.20 in WNW 3.3 mph 6.9 mph 59 % 0.00 in
11:47 36.2 °F 23.2 °F 30.19 in WNW 2.3 mph 5.8 mph 59 % 0.00 in
11:52 36.2 °F 22.8 °F 30.19 in WNW 1.7 mph 3.5 mph 58 % 0.00 in
11:56 36.2 °F 22.8 °F 30.19 in WNW 3.2 mph 5.0 mph 58 % 0.00 in
12:01 36.4 °F 23.0 °F 30.20 in NNW 3.2 mph 4.6 mph 58 % 0.00 in
12:06 36.5 °F 23.5 °F 30.19 in NNE 3.1 mph 5.8 mph 59 % 0.00 in
12:11 36.7 °F 23.7 °F 30.20 in NW 2.9 mph 3.5 mph 59 % 0.00 in
12:15 36.9 °F 23.5 °F 30.19 in North 3.7 mph 8.1 mph 58 % 0.00 in
12:18 37.1 °F 24.1 °F 30.19 in North 1.5 mph 4.6 mph 59 % 0.00 in
12:23 37.4 °F 24.0 °F 30.18 in NNW 2.2 mph 5.8 mph 58 % 0.00 in
12:28 37.8 °F 23.9 °F 30.18 in NW 0.6 mph 2.3 mph 57 % 0.00 in
12:31 38.1 °F 24.2 °F 30.18 in WNW 3.4 mph 5.0 mph 57 % 0.00 in
12:32 38.2 °F 23.9 °F 30.18 in WNW 0.9 mph 4.6 mph 56 % 0.00 in
12:37 38.3 °F 23.5 °F 30.19 in WNW 5.2 mph 6.9 mph 55 % 0.00 in
12:45 38.5 °F 23.7 °F 30.19 in Calm   2.3 mph 55 % 0.00 in
12:46 38.5 °F 23.7 °F 30.18 in WNW 2.0 mph 7.0 mph 55 % 0.00 in
12:51 38.7 °F 23.9 °F 30.18 in North 2.4 mph 6.9 mph 55 % 0.00 in
12:56 38.8 °F 24.0 °F 30.18 in NW 0.4 mph 2.3 mph 55 % 0.00 in
13:00 38.9 °F 24.1 °F 30.17 in Calm   2.3 mph 55 % 0.00 in
13:01 38.9 °F 23.7 °F 30.17 in Calm   2.3 mph 54 % 0.00 in
13:06 39.1 °F 23.8 °F 30.17 in NW 1.6 mph 3.5 mph 54 % 0.00 in
13:08 39.1 °F 23.8 °F 30.17 in NW 0.4 mph 2.3 mph 54 % 0.00 in
13:13 39.1 °F 23.8 °F 30.17 in NNE 0.9 mph 4.6 mph 54 % 0.00 in
13:16 39.2 °F 23.9 °F 30.17 in NW 1.5 mph 2.3 mph 54 % 0.00 in
13:21 39.4 °F 24.6 °F 30.17 in NW 0.6 mph 2.3 mph 55 % 0.00 in
13:25 39.5 °F 24.2 °F 30.17 in NNW 2.9 mph 4.6 mph 54 % 0.00 in
13:30 39.4 °F 23.7 °F 30.17 in NNE 2.2 mph 4.6 mph 53 % 0.00 in
13:31 39.5 °F 23.8 °F 30.17 in WNW 0.6 mph 4.0 mph 53 % 0.00 in
13:36 39.5 °F 22.8 °F 30.18 in WNW 2.4 mph 3.5 mph 51 % 0.00 in
13:37 39.5 °F 22.8 °F 30.18 in WNW 1.2 mph 3.5 mph 51 % 0.00 in
13:47 39.6 °F 23.9 °F 30.18 in NW 2.5 mph 3.5 mph 53 % 0.00 in
13:48 39.6 °F 23.4 °F 30.18 in NW 2.4 mph 3.5 mph 52 % 0.00 in
13:53 39.5 °F 22.8 °F 30.18 in NW 2.0 mph 3.5 mph 51 % 0.00 in
13:56 39.4 °F 22.8 °F 30.18 in NW 2.5 mph 4.6 mph 51 % 0.00 in
14:01 39.4 °F 23.7 °F 30.18 in NNW 1.3 mph 3.5 mph 53 % 0.00 in
14:02 39.4 °F 23.7 °F 30.18 in NNW 1.8 mph 3.5 mph 53 % 0.00 in
14:07 39.4 °F 23.2 °F 30.19 in West 0.5 mph 3.5 mph 52 % 0.00 in
14:08 39.4 °F 23.2 °F 30.18 in West 0.2 mph 1.0 mph 52 % 0.00 in
14:13 39.3 °F 23.1 °F 30.18 in WNW 0.5 mph 2.0 mph 52 % 0.00 in
14:16 39.3 °F 23.1 °F 30.18 in WNW 0.8 mph 2.3 mph 52 % 0.00 in
14:21 39.2 °F 23.0 °F 30.18 in NW 1.3 mph 3.5 mph 52 % 0.00 in
14:22 39.2 °F 23.0 °F 30.18 in NW 1.2 mph 3.5 mph 52 % 0.00 in
14:27 39.1 °F 22.9 °F 30.18 in SSW 1.3 mph 3.5 mph 52 % 0.00 in
14:31 38.8 °F 22.7 °F 30.19 in South 2.6 mph 6.0 mph 52 % 0.00 in
14:36 38.6 °F 22.9 °F 30.18 in WSW 2.3 mph 5.8 mph 53 % 0.00 in
14:38 38.5 °F 22.8 °F 30.19 in WNW 2.4 mph 4.6 mph 53 % 0.00 in
14:41 38.4 °F 23.2 °F 30.19 in WNW 0.3 mph 2.3 mph 54 % 0.00 in
14:46 38.4 °F 22.7 °F 30.19 in WNW 1.1 mph 3.5 mph 53 % 0.00 in
14:49 38.4 °F 22.7 °F 30.18 in WNW 2.0 mph 2.3 mph 53 % 0.00 in
14:52 38.3 °F 22.6 °F 30.19 in WNW 1.7 mph 3.5 mph 53 % 0.00 in
14:56 38.2 °F 23.0 °F 30.19 in West 0.3 mph 3.5 mph 54 % 0.00 in
15:01 38.1 °F 22.9 °F 30.19 in West 0.5 mph 2.3 mph 54 % 0.00 in
15:03 38.1 °F 23.3 °F 30.18 in West 1.1 mph 3.5 mph 55 % 0.00 in
15:08 38.0 °F 23.7 °F 30.18 in SSW 1.0 mph 3.5 mph 56 % 0.00 in
15:10 37.9 °F 23.6 °F 30.18 in SW 1.4 mph 3.5 mph 56 % 0.00 in
15:15 37.8 °F 23.5 °F 30.18 in SSW 1.7 mph 4.6 mph 56 % 0.00 in
15:18 37.8 °F 23.5 °F 30.18 in SW 1.7 mph 3.5 mph 56 % 0.00 in
15:23 37.7 °F 23.4 °F 30.18 in SW 1.8 mph 3.5 mph 56 % 0.00 in
15:28 37.7 °F 23.0 °F 30.18 in SW 1.0 mph 3.5 mph 55 % 0.00 in
15:32 37.6 °F 22.9 °F 30.19 in SW 2.1 mph 3.5 mph 55 % 0.00 in
15:37 37.5 °F 23.2 °F 30.19 in SW 0.9 mph 2.3 mph 56 % 0.00 in
15:38 37.5 °F 23.2 °F 30.19 in SW 1.1 mph 3.5 mph 56 % 0.00 in
15:43 37.4 °F 23.1 °F 30.20 in WSW 1.9 mph 3.5 mph 56 % 0.00 in
15:45 37.4 °F 23.1 °F 30.19 in SW 0.9 mph 4.0 mph 56 % 0.00 in
15:47 37.4 °F 23.1 °F 30.19 in WSW 0.2 mph 3.5 mph 56 % 0.00 in
15:56 37.3 °F 23.0 °F 30.21 in West 1.1 mph 3.5 mph 56 % 0.00 in
15:57 37.3 °F 23.0 °F 30.21 in West 3.4 mph 5.8 mph 56 % 0.00 in
16:02 37.2 °F 22.9 °F 30.21 in WSW 0.4 mph 2.3 mph 56 % 0.00 in
16:03 37.2 °F 22.9 °F 30.21 in WSW 1.0 mph 2.3 mph 56 % 0.00 in
16:06 37.1 °F 22.8 °F 30.21 in Calm   2.3 mph 56 % 0.00 in
16:10 37.1 °F 22.8 °F 30.21 in WSW 0.4 mph 1.0 mph 56 % 0.00 in
16:12 37.1 °F 22.8 °F 30.22 in Calm     56 % 0.00 in
16:17 37.0 °F 23.2 °F 30.21 in WSW 0.1 mph 1.2 mph 57 % 0.00 in
16:18 37.0 °F 23.2 °F 30.22 in Calm   1.2 mph 57 % 0.00 in
16:22 36.9 °F 23.1 °F 30.21 in Calm     57 % 0.00 in
16:27 36.8 °F 23.0 °F 30.22 in Calm     57 % 0.00 in
16:32 36.6 °F 22.8 °F 30.21 in Calm     57 % 0.00 in
16:37 36.5 °F 23.1 °F 30.21 in Calm     58 % 0.00 in
16:38 36.5 °F 23.1 °F 30.21 in Calm     58 % 0.00 in
16:39 36.4 °F 23.0 °F 30.22 in Calm     58 % 0.00 in
16:45 36.2 °F 23.2 °F 30.22 in Calm     59 % 0.00 in
16:46 36.1 °F 23.1 °F 30.22 in Calm     59 % 0.00 in
16:51 35.9 °F 23.0 °F 30.22 in Calm     59 % 0.00 in
16:55 35.7 °F 22.8 °F 30.22 in Calm     59 % 0.00 in
17:00 35.5 °F 23.0 °F 30.22 in Calm     60 % 0.00 in
17:05 35.3 °F 23.2 °F 30.22 in WSW 0.2 mph 1.2 mph 61 % 0.00 in
17:11 35.0 °F 23.3 °F 30.22 in WSW 0.1 mph 1.2 mph 62 % 0.00 in
17:16 34.9 °F 23.1 °F 30.23 in West 3.0 mph 5.0 mph 62 % 0.00 in
17:20 34.7 °F 23.0 °F 30.22 in Calm     62 % 0.00 in
17:23 34.6 °F 22.9 °F 30.23 in Calm     62 % 0.00 in
17:28 34.6 °F 22.9 °F 30.23 in Calm   3.5 mph 62 % 0.00 in
17:29 34.6 °F 22.9 °F 30.24 in Calm     62 % 0.00 in
17:34 34.6 °F 22.9 °F 30.23 in Calm     62 % 0.00 in
17:36 34.6 °F 22.9 °F 30.23 in Calm     62 % 0.00 in
17:41 34.6 °F 23.3 °F 30.23 in Calm   2.0 mph 63 % 0.00 in
17:43 34.6 °F 22.9 °F 30.24 in NW 2.5 mph 3.5 mph 62 % 0.00 in
17:48 34.8 °F 22.3 °F 30.24 in WNW 0.6 mph 3.5 mph 60 % 0.00 in
17:54 34.9 °F 22.4 °F 30.24 in WNW 0.8 mph 2.3 mph 60 % 0.00 in
17:58 35.0 °F 22.5 °F 30.25 in WNW 1.6 mph 3.5 mph 60 % 0.00 in
18:03 35.2 °F 22.3 °F 30.24 in NNW 2.1 mph 3.5 mph 59 % 0.00 in
18:07 35.3 °F 22.0 °F 30.25 in NNW 0.7 mph 3.5 mph 58 % 0.00 in
18:08 35.3 °F 22.0 °F 30.25 in North 2.0 mph 4.0 mph 58 % 0.00 in
18:13 35.5 °F 22.2 °F 30.24 in NNE 3.2 mph 4.0 mph 58 % 0.00 in
18:19 35.6 °F 22.3 °F 30.24 in North 1.6 mph 3.5 mph 58 % 0.00 in
18:22 35.6 °F 22.3 °F 30.24 in North 1.2 mph 3.5 mph 58 % 0.00 in
18:27 35.7 °F 22.4 °F 30.24 in NNE 0.2 mph 1.2 mph 58 % 0.00 in
18:32 35.8 °F 22.0 °F 30.24 in NNE 1.3 mph 3.5 mph 57 % 0.00 in
18:34 35.8 °F 22.0 °F 30.24 in NNE 2.0 mph 3.5 mph 57 % 0.00 in
18:39 36.0 °F 22.2 °F 30.24 in North 1.3 mph 3.5 mph 57 % 0.00 in
18:40 36.0 °F 22.2 °F 30.24 in NE 3.9 mph 5.8 mph 57 % 0.00 in
18:45 36.1 °F 22.3 °F 30.25 in NNE 0.6 mph 3.5 mph 57 % 0.00 in
18:46 36.1 °F 22.3 °F 30.25 in NNE 0.2 mph 2.3 mph 57 % 0.00 in
18:51 36.2 °F 22.4 °F 30.25 in North 0.5 mph 2.0 mph 57 % 0.00 in
18:52 36.2 °F 22.4 °F 30.25 in North 0.7 mph 2.0 mph 57 % 0.00 in
18:57 36.3 °F 22.5 °F 30.25 in NNE 0.2 mph 3.5 mph 57 % 0.00 in
19:02 36.4 °F 22.6 °F 30.26 in NNW 1.6 mph 3.5 mph 57 % 0.00 in
19:07 36.5 °F 22.7 °F 30.27 in NNE 2.1 mph 3.5 mph 57 % 0.00 in
19:12 36.6 °F 22.4 °F 30.27 in North 0.4 mph 2.3 mph 56 % 0.00 in
19:17 36.7 °F 22.5 °F 30.26 in NNE 0.2 mph 1.2 mph 56 % 0.00 in
19:22 36.7 °F 22.9 °F 30.26 in NNE 3.5 mph 4.6 mph 57 % 0.00 in
19:23 36.7 °F 22.9 °F 30.26 in NNE 3.6 mph 4.6 mph 57 % 0.00 in
19:28 36.8 °F 22.6 °F 30.26 in NNE 0.1 mph 1.2 mph 56 % 0.00 in
19:33 36.8 °F 22.6 °F 30.26 in NNE 2.0 mph 3.5 mph 56 % 0.00 in
19:35 36.8 °F 22.6 °F 30.26 in NNE 2.2 mph 4.0 mph 56 % 0.00 in
19:40 36.8 °F 22.6 °F 30.25 in NNE 3.6 mph 4.0 mph 56 % 0.00 in
19:45 36.8 °F 22.6 °F 30.25 in NNE 2.0 mph 3.5 mph 56 % 0.00 in
19:50 36.8 °F 22.6 °F 30.26 in NNE 0.1 mph 3.5 mph 56 % 0.00 in
19:51 36.8 °F 22.6 °F 30.26 in NNE 1.2 mph 2.3 mph 56 % 0.00 in
19:56 36.8 °F 22.1 °F 30.25 in Calm     55 % 0.00 in
20:01 36.8 °F 22.1 °F 30.25 in Calm   1.2 mph 55 % 0.00 in
20:03 36.8 °F 22.6 °F 30.25 in Calm     56 % 0.00 in
20:08 36.8 °F 23.4 °F 30.26 in Calm     58 % 0.00 in
20:13 36.8 °F 23.8 °F 30.26 in Calm     59 % 0.00 in
20:18 36.8 °F 24.6 °F 30.26 in Calm     61 % 0.00 in
20:23 36.7 °F 24.5 °F 30.26 in Calm     61 % 0.00 in
20:24 36.7 °F 24.5 °F 30.27 in Calm     61 % 0.00 in
20:29 36.6 °F 24.4 °F 30.27 in Calm     61 % 0.00 in
20:30 36.6 °F 24.4 °F 30.27 in Calm     61 % 0.00 in
20:34 36.5 °F 24.3 °F 30.27 in Calm     61 % 0.00 in
20:38 36.4 °F 24.2 °F 30.27 in Calm     61 % 0.00 in
20:43 36.4 °F 24.2 °F 30.27 in Calm     61 % 0.00 in
20:44 36.4 °F 24.2 °F 30.27 in Calm     61 % 0.00 in
20:48 36.2 °F 24.4 °F 30.28 in Calm     62 % 0.00 in
20:53 36.2 °F 24.4 °F 30.27 in Calm     62 % 0.00 in
20:55 36.1 °F 24.7 °F 30.28 in Calm     63 % 0.00 in
20:56 36.1 °F 24.7 °F 30.28 in Calm     63 % 0.00 in
21:01 36.0 °F 24.6 °F 30.28 in Calm     63 % 0.00 in
21:02 36.0 °F 24.6 °F 30.28 in Calm     63 % 0.00 in
21:07 35.8 °F 24.4 °F 30.28 in Calm     63 % 0.00 in
21:12 35.7 °F 24.7 °F 30.28 in Calm     64 % 0.00 in
21:15 35.6 °F 24.6 °F 30.28 in Calm     64 % 0.00 in
21:20 35.5 °F 24.5 °F 30.28 in Calm     64 % 0.00 in
21:21 35.5 °F 24.9 °F 30.28 in Calm     65 % 0.00 in
21:26 35.3 °F 24.3 °F 30.29 in NNE 0.2 mph 1.0 mph 64 % 0.00 in
21:28 35.3 °F 24.7 °F 30.28 in NNE 0.3 mph 1.2 mph 65 % 0.00 in
21:29 35.2 °F 24.6 °F 30.28 in NNE 0.1 mph 1.2 mph 65 % 0.00 in
21:34 35.1 °F 24.5 °F 30.28 in Calm     65 % 0.00 in
21:39 34.9 °F 24.3 °F 30.29 in Calm     65 % 0.00 in
21:41 34.8 °F 24.2 °F 30.28 in Calm   1.2 mph 65 % 0.00 in
21:46 34.7 °F 24.5 °F 30.28 in Calm     66 % 0.00 in
21:49 34.5 °F 24.3 °F 30.28 in Calm     66 % 0.00 in
21:53 34.4 °F 24.2 °F 30.28 in NNE 0.3 mph 1.2 mph 66 % 0.00 in
21:58 34.3 °F 24.5 °F 30.28 in Calm     67 % 0.00 in
21:59 34.3 °F 24.1 °F 30.28 in Calm     66 % 0.00 in
22:00 34.3 °F 24.5 °F 30.28 in Calm     67 % 0.00 in
22:05 34.1 °F 23.9 °F 30.28 in Calm   1.2 mph 66 % 0.00 in
22:06 34.1 °F 23.9 °F 30.28 in Calm     66 % 0.00 in
22:11 34.0 °F 24.2 °F 30.28 in Calm     67 % 0.00 in
22:17 33.8 °F 24.0 °F 30.28 in Calm   1.2 mph 67 % 0.00 in
22:18 33.8 °F 24.0 °F 30.29 in Calm     67 % 0.00 in
22:23 33.6 °F 24.2 °F 30.28 in NE 0.3 mph 2.0 mph 68 % 0.00 in
22:25 33.5 °F 24.1 °F 30.28 in NE 0.1 mph 1.2 mph 68 % 0.00 in
22:30 33.4 °F 24.0 °F 30.28 in Calm   2.3 mph 68 % 0.00 in
22:35 33.3 °F 23.5 °F 30.29 in Calm     67 % 0.00 in
22:36 33.3 °F 23.5 °F 30.29 in Calm     67 % 0.00 in
22:44 33.1 °F 23.3 °F 30.29 in Calm     67 % 0.00 in
22:49 33.0 °F 23.6 °F 30.29 in Calm     68 % 0.00 in
22:54 32.9 °F 23.5 °F 30.29 in Calm     68 % 0.00 in
22:55 32.9 °F 23.5 °F 30.29 in ENE 0.6 mph 2.3 mph 68 % 0.00 in
23:00 32.9 °F 23.5 °F 30.29 in ENE 0.4 mph 1.2 mph 68 % 0.00 in
23:01 32.9 °F 23.5 °F 30.29 in ENE 0.5 mph 2.3 mph 68 % 0.00 in
23:06 32.8 °F 23.7 °F 30.28 in ENE 0.5 mph 2.3 mph 69 % 0.00 in
23:09 32.8 °F 23.7 °F 30.28 in ENE 1.4 mph 3.0 mph 69 % 0.00 in
23:14 33.0 °F 23.6 °F 30.29 in ENE 2.5 mph 3.5 mph 68 % 0.00 in
23:15 33.0 °F 23.2 °F 30.28 in ENE 1.6 mph 4.0 mph 67 % 0.00 in
23:20 33.3 °F 23.5 °F 30.29 in ENE 1.7 mph 3.5 mph 67 % 0.00 in
23:25 33.5 °F 23.7 °F 30.29 in ENE 1.7 mph 3.5 mph 67 % 0.00 in
23:30 33.7 °F 23.5 °F 30.29 in Calm   1.2 mph 66 % 0.00 in
23:39 33.8 °F 23.6 °F 30.29 in Calm     66 % 0.00 in
23:44 33.9 °F 23.7 °F 30.29 in Calm     66 % 0.00 in
23:49 33.8 °F 23.6 °F 30.28 in Calm     66 % 0.00 in
23:52 33.8 °F 23.6 °F 30.28 in East 0.3 mph 2.3 mph 66 % 0.00 in
23:56 33.8 °F 24.0 °F 30.27 in ESE 0.8 mph 2.3 mph 67 % 0.00 in
Crab Meadow Weather
Compliments of Weather Underground - 3.5 mb

Script developed by  Jim McMurry - jmcmurry@mwt.net Adapted for the template by  Wim van der Kuil - Leuven-Template.eu

Lightning: The average number of deaths from lightning is more than 100 a year with several more deaths from lightning related fires. Lightning injuries account for 3-5 times than those of lightning deaths.